TimeEDT,TemperatureF,Dew PointF,Humidity,Sea Level PressureIn,VisibilityMPH,Wind Direction,Wind SpeedMPH,Gust SpeedMPH,PrecipitationIn,Events,Conditions,WindDirDegrees,DateUTC
12:54 AM,70.0,66.0,87,29.81,10.0,Calm,Calm,-,N/A,,Clear,0,2013-09-02 04:54:00
1:54 AM,69.1,66.9,93,29.80,10.0,SE,3.5,-,N/A,,Overcast,140,2013-09-02 05:54:00
2:54 AM,69.1,66.0,90,29.78,10.0,SE,4.6,-,N/A,,Scattered Clouds,140,2013-09-02 06:54:00
3:54 AM,70.0,66.0,87,29.75,10.0,Calm,Calm,-,N/A,,Clear,0,2013-09-02 07:54:00
4:54 AM,71.1,66.9,87,29.76,10.0,Calm,Calm,-,N/A,,Overcast,0,2013-09-02 08:54:00
5:54 AM,70.0,66.9,90,29.77,10.0,Calm,Calm,-,N/A,,Overcast,0,2013-09-02 09:54:00
6:54 AM,71.1,66.9,87,29.78,10.0,South,3.5,-,0.00,Rain-Thunderstorm,Light Thunderstorms and Rain,180,2013-09-02 10:54:00
7:01 AM,71.6,68.0,88,29.78,10.0,South,3.5,-,0.00,Rain-Thunderstorm,Light Thunderstorms and Rain,190,2013-09-02 11:01:00
7:22 AM,71.6,68.0,88,29.77,10.0,Calm,Calm,-,0.02,,Mostly Cloudy,0,2013-09-02 11:22:00
7:37 AM,71.6,68.0,88,29.76,10.0,ESE,4.6,-,0.02,,Mostly Cloudy,110,2013-09-02 11:37:00
7:54 AM,71.1,69.1,93,29.76,10.0,SE,3.5,-,0.02,,Mostly Cloudy,140,2013-09-02 11:54:00
8:54 AM,73.0,69.1,87,29.76,10.0,Calm,Calm,-,N/A,,Overcast,0,2013-09-02 12:54:00
9:01 AM,73.4,69.8,88,29.76,10.0,Calm,Calm,-,N/A,,Overcast,0,2013-09-02 13:01:00
9:54 AM,73.0,70.0,90,29.76,10.0,SSE,3.5,-,N/A,,Overcast,150,2013-09-02 13:54:00
10:31 AM,73.4,69.8,88,29.76,10.0,South,6.9,-,N/A,,Overcast,180,2013-09-02 14:31:00
10:54 AM,75.0,69.1,82,29.76,10.0,South,10.4,-,N/A,,Overcast,170,2013-09-02 14:54:00
11:15 AM,73.4,69.8,88,29.76,10.0,South,9.2,17.3,N/A,,Mostly Cloudy,180,2013-09-02 15:15:00
11:25 AM,75.2,69.8,83,29.75,10.0,South,10.4,-,N/A,,Mostly Cloudy,190,2013-09-02 15:25:00
11:54 AM,79.0,69.1,72,29.74,10.0,South,12.7,-,N/A,,Mostly Cloudy,190,2013-09-02 15:54:00
12:39 PM,78.8,69.8,74,29.73,10.0,SSW,8.1,-,N/A,,Overcast,200,2013-09-02 16:39:00
12:54 PM,79.0,69.1,72,29.73,10.0,South,12.7,-,N/A,,Mostly Cloudy,190,2013-09-02 16:54:00
1:06 PM,78.8,68.0,69,29.73,10.0,South,12.7,-,N/A,,Mostly Cloudy,190,2013-09-02 17:06:00
1:54 PM,79.0,68.0,69,29.72,10.0,South,9.2,-,N/A,,Mostly Cloudy,180,2013-09-02 17:54:00
2:54 PM,80.1,66.9,64,29.70,10.0,South,10.4,-,N/A,,Mostly Cloudy,190,2013-09-02 18:54:00
3:54 PM,80.1,66.0,62,29.68,10.0,South,13.8,20.7,N/A,,Mostly Cloudy,180,2013-09-02 19:54:00
4:16 PM,80.6,66.2,61,29.68,10.0,South,9.2,18.4,N/A,Thunderstorm,Mostly Cloudy,190,2013-09-02 20:16:00
4:33 PM,78.8,66.2,65,29.68,10.0,South,10.4,-,N/A,,Mostly Cloudy,180,2013-09-02 20:33:00
4:54 PM,80.1,66.9,64,29.67,10.0,South,8.1,-,N/A,,Mostly Cloudy,180,2013-09-02 20:54:00
5:54 PM,80.1,66.9,64,29.66,10.0,South,10.4,-,N/A,,Scattered Clouds,180,2013-09-02 21:54:00
6:54 PM,77.0,66.9,71,29.66,10.0,South,4.6,-,N/A,,Mostly Cloudy,190,2013-09-02 22:54:00
7:54 PM,75.9,66.9,74,29.67,10.0,SSW,6.9,-,N/A,Thunderstorm,Mostly Cloudy,200,2013-09-02 23:54:00
8:13 PM,68.0,62.6,83,29.73,3.0,NW,11.5,27.6,0.08,Rain-Thunderstorm,Heavy Thunderstorms and Rain,310,2013-09-03 00:13:00
8:20 PM,66.2,62.6,88,29.72,2.0,NNW,6.9,-,0.22,Rain-Thunderstorm,Heavy Thunderstorms and Rain,330,2013-09-03 00:20:00
8:31 PM,66.2,64.4,94,29.70,4.0,North,4.6,-,0.41,Rain-Thunderstorm,Thunderstorms and Rain,10,2013-09-03 00:31:00
8:54 PM,66.0,63.0,90,29.72,10.0,ESE,6.9,-,0.44,Rain-Thunderstorm,Light Rain,110,2013-09-03 00:54:00
8:57 PM,66.2,64.4,94,29.72,10.0,East,6.9,-,0.01,Rain-Thunderstorm,Light Rain,80,2013-09-03 00:57:00
9:18 PM,64.4,62.6,94,29.72,10.0,East,6.9,-,0.01,Rain,Light Rain,100,2013-09-03 01:18:00
9:54 PM,64.9,63.0,93,29.69,10.0,ESE,8.1,-,0.01,,Scattered Clouds,120,2013-09-03 01:54:00
10:54 PM,64.9,63.0,93,29.70,10.0,South,4.6,-,N/A,,Mostly Cloudy,180,2013-09-03 02:54:00
11:54 PM,64.9,62.1,90,29.71,10.0,SSE,3.5,-,N/A,,Scattered Clouds,150,2013-09-03 03:54:00